EW7149 Weather Reports


Display with metric or nautical units.
time (UTC)temp
F
wind
direction
speed
MPH
gust
MPH
rain 1hr
in
rain 24hr
in
rain mn
in
humidity
%
barometer
mb
20260902224136 76 152 0.0 0.0 0.00 0.43 0.00 1 1016.5
20260902223635 76 152 0.0 0.0 0.00 0.43 0.00 1 1016.6
20260902223138 76 152 0.0 0.0 0.00 0.43 0.00 1 1016.6
20260902222624 76 151 0.0 1.0 0.00 0.43 0.00 1 1016.7
20260902222106 76 151 0.0 3.0 0.00 0.43 0.00 1 1016.6
20260902221613 76 142 0.0 3.0 0.00 0.43 0.00 1 1016.5
20260902221106 76 155 0.0 0.0 0.00 0.43 0.00 1 1016.6
20260902220558 76 153 0.0 0.0 0.00 0.43 0.00 1 1016.4
20260902220056 77 153 0.0 0.0 0.00 0.43 0.00 1 1016.5
20260902215556 77 153 0.0 0.0 0.00 0.43 0.00 1 1016.5
20260902215037 77 160 0.0 0.0 0.00 0.43 0.00 1 1016.8
20260902214023 78 170 0.0 0.0 0.00 0.43 0.00 1 1017.0
20260902213531 77 156 0.0 0.0 0.00 0.43 0.00 1 1017.1
20260902213019 77 170 0.0 0.0 0.00 0.43 0.00 1 1017.0
20260902212522 77 170 0.0 0.0 0.00 0.43 0.00 1 1017.1
20260902212006 77 170 0.0 0.0 0.00 0.43 0.00 1 1017.2
20260902211447 77 170 0.0 0.0 0.00 0.43 0.00 1 1017.1
20260902210944 77 170 0.0 0.0 0.00 0.43 0.00 1 1017.2
20260902205926 76 170 0.0 0.0 0.00 0.43 0.00 1 1017.1
20260902205416 76 170 0.0 0.0 0.00 0.43 0.00 1 1016.9
20260902204926 76 221 0.0 0.0 0.00 0.43 0.00 1 1016.8
20260902203914 77 173 0.0 1.0 0.00 0.43 0.00 1 1017.1
20260902203420 77 173 0.0 0.0 0.00 0.43 0.00 1 1017.1
20260902202416 77 173 0.0 0.0 0.00 0.43 0.00 1 1017.1
20260902201923 77 173 0.0 0.0 0.00 0.43 0.00 1 1017.2
20260902201410 76 173 0.0 0.0 0.00 0.43 0.00 1 1017.3
20260902200853 76 173 0.0 0.0 0.00 0.43 0.00 1 1017.2
20260902200401 76 173 0.0 0.0 0.00 0.43 0.00 1 1017.0
20260902195859 76 173 0.0 0.0 0.00 0.43 0.00 1 1016.9
20260902195404 76 174 0.0 0.0 0.00 0.43 0.00 1 1016.9
20260902194347 76 178 0.0 0.0 0.00 0.43 0.00 1 1016.7
20260902193851 76 178 0.0 0.0 0.00 0.43 0.00 1 1016.4
20260902193339 76 178 0.0 0.0 0.00 0.43 0.00 1 1016.0
20260902192339 76 178 0.0 0.0 0.00 0.43 0.00 1 1016.1
20260902191840 76 178 0.0 0.0 0.00 0.43 0.00 1 1016.5
20260902190823 76 178 0.0 0.0 0.00 0.43 0.00 1 1016.7
20260902190319 76 178 0.0 0.0 0.00 0.43 0.00 1 1016.7
20260902185801 76 178 0.0 0.0 0.00 0.43 0.00 1 1016.8
20260902185306 76 178 0.0 0.0 0.00 0.43 0.00 1 1017.0
20260902184242 75 178 0.0 0.0 0.00 0.43 0.00 1 1017.4
20260902183751 75 178 0.0 0.0 0.00 0.43 0.00 1 1017.4
20260902183250 75 178 0.0 0.0 0.00 0.43 0.00 1 1017.4
20260902182306 74 178 0.0 0.0 0.00 0.43 0.00 1 1017.2
20260902181812 74 152 0.0 0.0 0.00 0.43 0.00 1 1017.1
20260902181254 73 151 0.0 0.0 0.00 0.43 0.00 1 1017.4
20260902175804 72 167 0.0 0.0 0.00 0.43 0.00 1 1018.3
20260902175247 72 186 0.0 0.0 0.00 0.43 0.00 1 1018.5
20260902171717 73 286 0.0 0.0 0.08 0.42 0.43 1 1019.2
20260902171213 73 286 0.0 0.0 0.27 0.42 0.43 1 1019.4
20260902170705 74 273 0.0 1.0 1.52 0.36 0.38 1 1019.9
20260902170155 76 248 0.0 1.0 1.57 0.26 0.28 1 1020.2
20260902165646 78 24 0.0 9.0 1.55 0.16 0.19 1 1020.5
20260902165129 80 291 0.0 9.0 0.26 0.01 0.02 2 1020.8
20260902164625 83 74 0.0 9.0 0.00 0.00 0.00 15 1020.4
20260902164128 85 88 0.0 1.0 0.00 0.00 0.00 1 1019.6
20260902163616 85 163 0.0 0.0 0.00 0.00 0.00 1 1019.1
20260902163059 86 163 0.0 0.0 0.00 0.00 0.00 1 1018.7
20260902162030 86 163 0.0 0.0 0.00 0.00 0.00 1 1018.2
20260902161538 86 163 0.0 0.0 0.00 0.00 0.00 1 1018.1
20260902161022 86 163 0.0 0.0 0.00 0.00 0.00 3 1018.2
20260902160524 86 160 0.0 0.0 0.00 0.00 0.00 1 1018.1
20260902160009 85 158 0.0 0.0 0.00 0.00 0.00 2 1018.1
20260902155514 85 158 0.0 0.0 0.00 0.00 0.00 1 1018.0
20260902155024 85 158 0.0 0.0 0.00 0.00 0.00 1 1017.9
20260902154516 85 158 0.0 0.0 0.00 0.00 0.00 1 1017.6
20260902154016 85 158 0.0 0.0 0.00 0.00 0.00 2 1017.7
20260902153500 85 158 0.0 0.0 0.00 0.00 0.00 3 1017.6
20260902152943 85 154 0.0 0.0 0.00 0.00 0.00 1 1017.6
20260902152434 85 142 0.0 0.0 0.00 0.00 0.00 4 1017.7
20260902151919 85 144 0.0 0.0 0.00 0.00 0.00 7 1017.6
20260902150859 84 154 0.0 0.0 0.00 0.00 0.00 1 1017.6
20260902150408 84 150 0.0 0.0 0.00 0.00 0.00 1 1017.6
20260902145337 84 134 0.0 0.0 0.00 0.00 0.00 1 1017.6
20260902144832 84 134 0.0 0.0 0.00 0.00 0.00 1 1017.6
20260902144335 83 154 0.0 0.0 0.00 0.00 0.00 1 1017.6
20260902143334 82 157 0.0 0.0 0.00 0.00 0.00 1 1017.6
20260902142829 82 111 0.0 0.0 0.00 0.00 0.00 1 1017.8
20260902142315 81 111 0.0 0.0 0.00 0.00 0.00 1 1017.8
20260902141822 80 111 0.0 0.0 0.00 0.00 0.00 1 1017.8
20260902141310 79 82 0.0 0.0 0.00 0.00 0.00 1 1017.8
20260902140815 79 82 0.0 0.0 0.00 0.00 0.00 1 1017.8
20260902140309 78 82 0.0 0.0 0.00 0.00 0.00 1 1017.8
20260902135751 78 84 0.0 0.0 0.00 0.00 0.00 1 1017.8
20260902135241 77 80 0.0 0.0 0.00 0.00 0.00 1 1017.8
20260902133752 77 86 0.0 0.0 0.00 0.00 0.00 1 1017.6
20260902133237 76 86 0.0 0.0 0.00 0.00 0.00 1 1017.5
20260902132747 76 148 0.0 0.0 0.00 0.00 0.00 1 1017.4
20260902132231 76 146 0.0 0.0 0.00 0.00 0.00 1 1017.5
20260902131734 76 143 0.0 3.0 0.00 0.00 0.00 1 1017.4
20260902131240 76 195 0.0 0.0 0.00 0.00 0.00 1 1017.4
20260902130732 75 199 0.0 0.0 0.00 0.00 0.00 1 1017.3
20260902130231 75 199 0.0 0.0 0.00 0.00 0.00 1 1017.4
20260902125721 75 224 0.0 0.0 0.00 0.00 0.00 1 1017.3
20260902125206 74 224 0.0 0.0 0.00 0.00 0.00 1 1017.1
20260902124711 74 224 0.0 0.0 0.00 0.00 0.00 1 1017.1
20260902123706 74 224 0.0 0.0 0.00 0.00 0.00 1 1017.1
20260902122701 74 224 0.0 0.0 0.00 0.00 0.00 1 1017.1
20260902122150 73 255 0.0 0.0 0.00 0.00 0.00 1 1017.2
20260902121636 73 255 0.0 0.0 0.00 0.00 0.00 1 1017.1
20260902121143 73 255 0.0 0.0 0.00 0.00 0.00 1 1017.0
20260902120625 73 255 0.0 0.0 0.00 0.00 0.00 1 1016.9
20260902120130 73 256 0.0 0.0 0.00 0.00 0.00 1 1016.9
20260902115114 72 284 0.0 0.0 0.00 0.00 0.00 1 1016.8
20260902114618 72 284 0.0 0.0 0.00 0.00 0.00 1 1016.8
20260902114120 72 284 0.0 0.0 0.00 0.00 0.00 1 1016.9
20260902113601 72 284 0.0 0.0 0.00 0.00 0.00 1 1017.0
20260902112552 71 284 0.0 0.0 0.00 0.00 0.00 1 1016.9
20260902111556 71 284 0.0 0.0 0.00 0.00 0.00 1 1016.9
20260902111044 71 284 0.0 0.0 0.00 0.00 0.00 1 1016.9
20260902110532 71 284 0.0 0.0 0.00 0.00 0.00 1 1016.8
20260902110028 71 284 0.0 0.0 0.00 0.00 0.00 1 1016.8
20260902105528 71 284 0.0 0.0 0.00 0.00 0.00 1 1016.8
20260902105011 71 284 0.0 0.0 0.00 0.00 0.00 1 1016.8
20260902104514 71 284 0.0 0.0 0.00 0.00 0.00 1 1016.8
20260902104011 71 284 0.0 0.0 0.00 0.00 0.00 1 1016.8
20260902103454 71 284 0.0 0.0 0.00 0.00 0.00 1 1016.9
20260902102941 70 284 0.0 0.0 0.00 0.00 0.00 1 1016.9
20260902102424 70 284 0.0 0.0 0.00 0.00 0.00 1 1016.9
20260902101919 70 284 0.0 0.0 0.00 0.00 0.00 1 1016.9
20260902101419 70 284 0.0 0.0 0.00 0.00 0.00 1 1017.0
20260902100908 70 284 0.0 0.0 0.00 0.00 0.00 1 1016.9
20260902100407 70 284 0.0 0.0 0.00 0.00 0.00 1 1016.9
20260902095916 70 284 0.0 0.0 0.00 0.00 0.00 1 1016.9
20260902095409 70 284 0.0 0.0 0.00 0.00 0.00 1 1016.9
20260902094407 71 284 0.0 0.0 0.00 0.00 0.00 1 1016.8
20260902093906 71 284 0.0 0.0 0.00 0.00 0.00 1 1016.7
20260902093351 71 284 0.0 0.0 0.00 0.00 0.00 1 1016.7
20260902092849 71 284 0.0 0.0 0.00 0.00 0.00 1 1016.6
20260902091824 71 284 0.0 0.0 0.00 0.00 0.00 1 1016.6
20260902091322 71 284 0.0 0.0 0.00 0.00 0.00 1 1016.6
20260902090809 71 284 0.0 0.0 0.00 0.00 0.00 1 1016.6
20260902085743 71 284 0.0 0.0 0.00 0.00 0.00 1 1016.7
20260902085230 71 284 0.0 0.0 0.00 0.00 0.00 1 1016.7
20260902084717 71 284 0.0 0.0 0.00 0.00 0.00 1 1016.8
20260902084204 71 284 0.0 0.0 0.00 0.00 0.00 1 1016.7
20260902083657 71 284 0.0 0.0 0.00 0.00 0.00 1 1016.7
20260902083200 71 284 0.0 0.0 0.00 0.00 0.00 1 1016.6
20260902082658 71 284 0.0 0.0 0.00 0.00 0.00 1 1016.5
20260902082150 71 284 0.0 0.0 0.00 0.00 0.00 1 1016.5
20260902081142 71 284 0.0 0.0 0.00 0.00 0.00 1 1016.5
20260902075632 71 284 0.0 0.0 0.00 0.00 0.00 1 1016.6
20260902075142 71 284 0.0 0.0 0.00 0.00 0.00 1 1016.6
20260902074652 72 284 0.0 0.0 0.00 0.00 0.00 1 1016.5
20260902073627 72 284 0.0 0.0 0.00 0.00 0.00 1 1016.4
20260902073109 72 284 0.0 0.0 0.00 0.00 0.00 1 1016.4
20260902072553 72 284 0.0 0.0 0.00 0.00 0.00 1 1016.3
20260902071536 72 284 0.0 0.0 0.00 0.00 0.00 1 1016.2
20260902071029 72 284 0.0 0.0 0.00 0.00 0.00 1 1016.1
20260902070534 72 284 0.0 0.0 0.00 0.00 0.00 1 1016.0
20260902065518 72 284 0.0 0.0 0.00 0.00 0.00 1 1015.9
20260902064509 73 284 0.0 0.0 0.00 0.00 0.00 1 1015.9
20260902063956 73 284 0.0 0.0 0.00 0.00 0.00 1 1015.9
20260902063446 73 284 0.0 0.0 0.00 0.00 0.00 1 1015.9
20260902062950 73 284 0.0 0.0 0.00 0.00 0.00 1 1016.0
20260902062432 73 284 0.0 0.0 0.00 0.00 0.00 1 1015.9
20260902061926 74 284 0.0 0.0 0.00 0.00 0.00 1 1015.8
20260902061413 74 284 0.0 0.0 0.00 0.00 0.00 1 1015.8
20260902060911 74 284 0.0 0.0 0.00 0.00 0.00 1 1015.8
20260902055430 75 284 0.0 0.0 0.00 0.00 0.00 1 1015.8
20260902054929 75 284 0.0 0.0 0.00 0.00 0.00 1 1015.8
20260902054410 75 284 0.0 0.0 0.00 0.00 0.00 1 1015.8
20260902053856 75 284 0.0 0.0 0.00 0.00 0.00 1 1015.7
20260902053400 76 284 0.0 0.0 0.00 0.00 0.00 1 1015.6
20260902052905 76 284 0.0 0.0 0.00 0.00 0.00 1 1015.5
20260902051339 76 284 0.0 0.0 0.00 0.00 0.00 1 1015.6
20260902050824 77 284 0.0 0.0 0.00 0.00 0.00 1 1015.7
20260902045815 77 284 0.0 0.0 0.00 0.00 0.00 1 1015.8
20260902045316 77 298 0.0 2.0 0.00 0.00 0.00 1 1016.1
20260902044806 77 355 0.0 0.0 0.00 0.00 0.00 1 1016.2
20260902044254 77 319 0.0 0.0 0.00 0.00 0.00 1 1016.4
20260902043756 78 5 0.0 1.0 0.00 0.00 0.00 1 1016.5
20260902042744 78 293 0.0 0.0 0.00 0.00 0.00 1 1016.6
20260902042253 78 288 0.0 0.0 0.00 0.00 0.00 1 1016.3
20260902041753 79 269 0.0 0.0 0.00 0.00 0.00 1 1016.2
20260902041243 79 269 0.0 0.0 0.00 0.00 0.00 1 1016.0
20260902040733 79 269 0.0 0.0 0.00 0.00 0.00 1 1015.9
20260902040228 80 269 0.0 0.0 0.00 0.00 0.00 1 1015.9
20260902035723 80 269 0.0 0.0 0.00 0.00 0.00 1 1015.9
20260902035214 80 269 0.0 0.0 0.00 0.00 0.00 1 1015.8
20260902034703 80 269 0.0 0.0 0.00 0.00 0.00 1 1015.7
20260902034146 81 269 0.0 0.0 0.00 0.00 0.00 1 1015.5
20260902033644 81 269 0.0 0.0 0.00 0.00 0.00 1 1015.3
20260902033133 81 269 0.0 0.0 0.00 0.00 0.00 1 1015.3
20260902032624 81 269 0.0 0.0 0.00 0.00 0.00 1 1015.2
20260902032115 81 269 0.0 0.0 0.00 0.00 0.00 1 1014.9
20260902031611 82 269 0.0 0.0 0.00 0.00 0.00 1 1014.8
20260902031115 82 269 0.0 0.0 0.00 0.00 0.00 1 1014.7
20260902030618 82 290 0.0 1.0 0.00 0.00 0.00 4 1014.6
20260902030108 82 273 0.0 0.0 0.00 0.00 0.00 9 1014.6
20260902025609 82 273 0.0 0.0 0.00 0.00 0.00 10 1014.5
20260902025115 82 300 0.0 0.0 0.00 0.00 0.00 11 1014.5
20260902024608 83 259 0.0 0.0 0.00 0.00 0.00 11 1014.4
20260902024050 83 247 0.0 0.0 0.00 0.00 0.00 11 1014.3
20260902023544 83 294 0.0 2.0 0.00 0.00 0.00 13 1014.4
20260902022536 83 240 0.0 0.0 0.00 0.00 0.00 13 1014.2
20260902022034 83 294 0.0 2.0 0.00 0.00 0.00 13 1014.3
20260902021524 83 238 0.0 0.0 0.00 0.00 0.00 11 1014.3
20260902020526 83 269 0.0 0.0 0.00 0.00 0.00 8 1014.4
20260902020014 83 219 0.0 0.0 0.00 0.00 0.00 6 1014.4
20260902015519 83 216 0.0 3.0 0.00 0.00 0.00 5 1014.4
20260902015003 83 292 0.0 0.0 0.00 0.00 0.00 3 1014.3
20260902014511 84 187 0.0 0.0 0.00 0.00 0.00 2 1014.3
20260902012941 84 240 0.0 0.0 0.00 0.00 0.00 5 1014.3
20260902012438 84 277 0.0 0.0 0.00 0.00 0.00 6 1014.3
20260902011926 84 238 0.0 0.0 0.00 0.00 0.00 7 1014.3
20260902010922 84 242 0.0 2.0 0.00 0.00 0.00 6 1014.2
20260902005915 84 253 0.0 0.0 0.00 0.00 0.00 5 1014.1
20260902004906 85 279 0.0 1.0 0.00 0.00 0.00 5 1013.9
20260902004350 85 296 0.0 0.0 0.00 0.00 0.00 6 1013.7
20260902003851 85 248 0.0 0.0 0.00 0.00 0.00 5 1013.6
20260902002843 85 273 0.0 0.0 0.00 0.00 0.00 7 1013.1
20260902002338 85 313 0.0 1.0 0.00 0.00 0.00 8 1013.1
20260902001831 86 267 0.0 0.0 0.00 0.00 0.00 8 1013.0
20260902001313 86 244 0.0 2.0 0.00 0.00 0.00 10 1012.9
20260902000803 86 175 0.0 0.0 0.00 0.00 0.00 11 1012.7
20260902000313 87 180 0.0 0.0 0.00 0.00 0.00 14 1012.7
20260901235758 87 178 0.0 0.0 0.00 0.00 0.00 18 1012.6
20260901235245 88 178 0.0 0.0 0.00 0.00 0.00 20 1012.5
20260901233746 89 177 0.0 0.0 0.00 0.00 0.00 29 1012.5
20260901233236 89 178 0.0 0.0 0.00 0.00 0.00 32 1012.5
20260901232724 90 177 0.0 0.0 0.00 0.00 0.00 35 1012.5
20260901232227 90 177 0.0 0.0 0.00 0.00 0.00 35 1012.5
20260901231723 90 178 0.0 0.0 0.00 0.00 0.00 36 1012.5
20260901231220 90 176 0.0 0.0 0.00 0.00 0.00 36 1012.5
20260901230704 91 176 0.0 0.0 0.00 0.00 0.00 37 1012.5
20260901230212 91 176 0.0 0.0 0.00 0.00 0.00 38 1012.5
20260901225706 91 175 0.0 0.0 0.00 0.00 0.00 40 1012.7